| time (UTC) | temp C | wind direction | speed KPH | gust KPH | rain 1hr cm | rain 24hr cm | rain mn cm | humidity % | barometer mb |
| 20260507091630 | 1 | 209 | 0.0 | 0.0 | 0.00 | 0.00 | 0.00 | 97 | 1012.2 |
| 20260507091126 | 1 | 209 | 0.0 | 0.0 | 0.00 | 0.00 | 0.00 | 98 | 1011.9 |
| 20260507090622 | 2 | 209 | 0.0 | 0.0 | 0.00 | 0.00 | 0.00 | 97 | 1011.7 |
| 20260507090120 | 2 | 209 | 0.0 | 0.0 | 0.00 | 0.00 | 0.00 | 98 | 1011.9 |
| 20260507085616 | 2 | 209 | 0.0 | 0.0 | 0.00 | 0.00 | 0.00 | 97 | 1011.6 |
| 20260507085113 | 2 | 209 | 0.0 | 0.0 | 0.00 | 0.00 | 0.00 | 97 | 1011.9 |
| 20260507084610 | 2 | 209 | 0.0 | 0.0 | 0.00 | 0.00 | 0.00 | 97 | 1011.9 |
| 20260507084107 | 2 | 209 | 0.0 | 0.0 | 0.00 | 0.00 | 0.00 | 97 | 1011.9 |
| 20260507083603 | 2 | 209 | 0.0 | 0.0 | 0.00 | 0.00 | 0.00 | 97 | 1012.0 |
| 20260507083101 | 2 | 209 | 0.0 | 0.0 | 0.00 | 0.00 | 0.00 | 97 | 1011.7 |
| 20260507082556 | 2 | 209 | 0.0 | 0.0 | 0.00 | 0.00 | 0.00 | 97 | 1011.9 |
| 20260507082053 | 2 | 209 | 0.0 | 0.0 | 0.00 | 0.00 | 0.00 | 97 | 1012.1 |
| 20260507081549 | 2 | 209 | 0.0 | 0.0 | 0.00 | 0.00 | 0.00 | 97 | 1012.0 |
| 20260507081046 | 2 | 209 | 0.0 | 0.0 | 0.00 | 0.00 | 0.00 | 97 | 1011.9 |
| 20260507080542 | 2 | 209 | 0.0 | 0.0 | 0.00 | 0.00 | 0.00 | 97 | 1011.9 |
| 20260507080038 | 2 | 209 | 0.0 | 0.0 | 0.00 | 0.00 | 0.00 | 96 | 1011.9 |
| 20260507075533 | 2 | 209 | 0.0 | 0.0 | 0.00 | 0.00 | 0.00 | 96 | 1012.1 |
| 20260507075030 | 2 | 209 | 0.0 | 0.0 | 0.00 | 0.00 | 0.00 | 96 | 1012.1 |
| 20260507074527 | 2 | 209 | 0.0 | 0.0 | 0.00 | 0.00 | 0.00 | 96 | 1012.0 |
| 20260507074026 | 2 | 209 | 0.0 | 0.0 | 0.00 | 0.00 | 0.00 | 96 | 1012.0 |
| 20260507073521 | 2 | 209 | 0.0 | 0.0 | 0.00 | 0.00 | 0.00 | 96 | 1012.3 |
| 20260507073018 | 2 | 209 | 0.0 | 0.0 | 0.00 | 0.00 | 0.00 | 95 | 1012.4 |
| 20260507072515 | 2 | 209 | 0.0 | 0.0 | 0.00 | 0.00 | 0.00 | 95 | 1012.0 |
| 20260507072012 | 2 | 209 | 0.0 | 0.0 | 0.00 | 0.00 | 0.00 | 95 | 1012.3 |
| 20260507071509 | 2 | 209 | 0.0 | 0.0 | 0.00 | 0.00 | 0.00 | 95 | 1012.5 |
| 20260507071006 | 3 | 209 | 0.0 | 0.0 | 0.00 | 0.00 | 0.00 | 95 | 1012.3 |
| 20260507070503 | 3 | 209 | 0.0 | 0.0 | 0.00 | 0.00 | 0.00 | 95 | 1012.4 |
| 20260507070000 | 3 | 209 | 0.0 | 0.0 | 0.00 | 0.00 | 0.00 | 94 | 1012.4 |
| 20260507065456 | 3 | 209 | 0.0 | 0.0 | 0.00 | 0.00 | 0.00 | 94 | 1012.3 |
| 20260507064954 | 3 | 209 | 0.0 | 0.0 | 0.00 | 0.00 | 0.00 | 94 | 1012.2 |
| 20260507064452 | 3 | 209 | 0.0 | 0.0 | 0.00 | 0.00 | 0.00 | 94 | 1012.3 |
| 20260507063949 | 3 | 209 | 0.0 | 0.0 | 0.00 | 0.00 | 0.00 | 93 | 1012.0 |
| 20260507063446 | 4 | 209 | 0.0 | 0.0 | 0.00 | 0.00 | 0.00 | 92 | 1012.1 |
| 20260507062943 | 4 | 209 | 0.0 | 0.0 | 0.00 | 0.00 | 0.00 | 91 | 1012.1 |
| 20260507062441 | 4 | 210 | 0.0 | 0.0 | 0.00 | 0.00 | 0.00 | 91 | 1012.4 |
| 20260507061938 | 5 | 210 | 0.0 | 0.0 | 0.00 | 0.00 | 0.00 | 90 | 1012.3 |
| 20260507061436 | 5 | 210 | 0.0 | 0.0 | 0.00 | 0.00 | 0.00 | 89 | 1012.3 |
| 20260507060934 | 5 | 210 | 0.0 | 0.0 | 0.00 | 0.00 | 0.00 | 89 | 1012.4 |
| 20260507060431 | 5 | 210 | 0.0 | 0.0 | 0.00 | 0.00 | 0.00 | 89 | 1012.4 |
| 20260507055927 | 5 | 210 | 0.0 | 0.0 | 0.00 | 0.00 | 0.00 | 89 | 1012.5 |
| 20260507055422 | 5 | 210 | 0.0 | 0.0 | 0.00 | 0.00 | 0.00 | 89 | 1012.6 |
| 20260507054914 | 5 | 209 | 0.0 | 0.0 | 0.00 | 0.00 | 0.00 | 90 | 1012.9 |
| 20260507054410 | 5 | 209 | 0.0 | 0.0 | 0.00 | 0.00 | 0.00 | 90 | 1012.7 |
| 20260507053908 | 5 | 209 | 0.0 | 0.0 | 0.00 | 0.00 | 0.00 | 90 | 1012.9 |
| 20260507053405 | 5 | 209 | 0.0 | 0.0 | 0.00 | 0.00 | 0.00 | 90 | 1012.8 |
| 20260507052904 | 5 | 209 | 0.0 | 0.0 | 0.00 | 0.00 | 0.00 | 90 | 1012.8 |
| 20260507052400 | 5 | 209 | 0.0 | 0.0 | 0.00 | 0.00 | 0.00 | 90 | 1012.8 |
| 20260507051857 | 5 | 209 | 0.0 | 0.0 | 0.00 | 0.00 | 0.00 | 90 | 1012.9 |
| 20260507051355 | 5 | 209 | 0.0 | 0.0 | 0.00 | 0.00 | 0.00 | 89 | 1013.0 |
| 20260507050851 | 5 | 209 | 0.0 | 0.0 | 0.00 | 0.00 | 0.00 | 89 | 1013.0 |
| 20260507050348 | 5 | 199 | 0.0 | 0.0 | 0.00 | 0.00 | 0.00 | 89 | 1012.9 |
| 20260507045845 | 5 | 206 | 0.0 | 0.0 | 0.00 | 0.00 | 0.00 | 88 | 1013.1 |
| 20260507045342 | 5 | 229 | 1.6 | 1.6 | 0.00 | 0.00 | 0.00 | 89 | 1013.0 |
| 20260507044839 | 5 | 212 | 1.6 | 1.6 | 0.00 | 0.00 | 0.00 | 89 | 1013.0 |
| 20260507044335 | 5 | 210 | 1.6 | 1.6 | 0.00 | 0.00 | 0.00 | 90 | 1012.9 |
| 20260507043831 | 5 | 207 | 1.6 | 1.6 | 0.00 | 0.00 | 0.00 | 90 | 1013.1 |
| 20260507043328 | 5 | 212 | 1.6 | 1.6 | 0.00 | 0.00 | 0.00 | 91 | 1013.1 |
| 20260507042824 | 5 | 208 | 0.0 | 0.0 | 0.00 | 0.00 | 0.00 | 91 | 1013.0 |
| 20260507042320 | 5 | 218 | 1.6 | 1.6 | 0.00 | 0.00 | 0.00 | 92 | 1012.8 |
| 20260507041817 | 5 | 201 | 0.0 | 1.6 | 0.00 | 0.00 | 0.00 | 92 | 1012.8 |
| 20260507041314 | 5 | 198 | 0.0 | 0.0 | 0.00 | 0.00 | 0.00 | 93 | 1013.0 |
| 20260507040811 | 5 | 209 | 0.0 | 0.0 | 0.00 | 0.00 | 0.00 | 93 | 1012.9 |
| 20260507040307 | 5 | 212 | 0.0 | 1.6 | 0.00 | 0.00 | 0.00 | 93 | 1012.8 |
| 20260507035803 | 5 | 218 | 1.6 | 1.6 | 0.00 | 2.69 | 2.69 | 93 | 1012.7 |
| 20260507035258 | 5 | 170 | 0.0 | 0.0 | 0.00 | 2.69 | 2.69 | 93 | 1012.8 |
| 20260507034756 | 5 | 223 | 1.6 | 1.6 | 0.00 | 2.69 | 2.69 | 93 | 1012.8 |
| 20260507034253 | 5 | 228 | 1.6 | 1.6 | 0.00 | 2.69 | 2.69 | 93 | 1012.7 |
| 20260507033752 | 5 | 200 | 0.0 | 0.0 | 0.00 | 2.69 | 2.69 | 93 | 1012.5 |
| 20260507033249 | 5 | 211 | 3.2 | 3.2 | 0.00 | 2.69 | 2.69 | 93 | 1012.6 |
| 20260507032745 | 5 | 200 | 0.0 | 1.6 | 0.00 | 2.69 | 2.69 | 93 | 1012.8 |
| 20260507032242 | 5 | 218 | 1.6 | 1.6 | 0.00 | 2.69 | 2.69 | 93 | 1012.6 |
| 20260507031738 | 5 | 197 | 1.6 | 1.6 | 0.00 | 2.69 | 2.69 | 93 | 1012.6 |
| 20260507031235 | 5 | 215 | 1.6 | 1.6 | 0.00 | 2.69 | 2.69 | 93 | 1012.6 |
| 20260507030732 | 5 | 205 | 1.6 | 1.6 | 0.00 | 2.69 | 2.69 | 94 | 1012.5 |
| 20260507030229 | 5 | 210 | 1.6 | 1.6 | 0.00 | 2.69 | 2.69 | 94 | 1012.6 |
| 20260507025727 | 5 | 207 | 1.6 | 1.6 | 0.00 | 2.69 | 2.69 | 95 | 1012.6 |
| 20260507025223 | 5 | 209 | 1.6 | 1.6 | 0.00 | 2.69 | 2.69 | 94 | 1012.5 |
| 20260507024722 | 5 | 200 | 0.0 | 1.6 | 0.00 | 2.69 | 2.69 | 94 | 1012.4 |
| 20260507024219 | 5 | 211 | 1.6 | 3.2 | 0.00 | 2.69 | 2.69 | 94 | 1012.4 |
| 20260507023714 | 5 | 206 | 1.6 | 1.6 | 0.00 | 2.69 | 2.69 | 95 | 1012.5 |
| 20260507023211 | 5 | 230 | 1.6 | 3.2 | 0.00 | 2.69 | 2.69 | 95 | 1012.6 |
| 20260507022709 | 5 | 241 | 1.6 | 1.6 | 0.00 | 2.69 | 2.69 | 95 | 1012.5 |
| 20260507022204 | 5 | 211 | 1.6 | 3.2 | 0.00 | 2.69 | 2.69 | 95 | 1012.7 |
| 20260507021701 | 5 | 193 | 0.0 | 0.0 | 0.00 | 2.69 | 2.69 | 95 | 1012.5 |
| 20260507021156 | 5 | 203 | 1.6 | 1.6 | 0.00 | 2.69 | 2.69 | 95 | 1012.6 |
| 20260507020655 | 5 | 225 | 1.6 | 3.2 | 0.00 | 2.69 | 2.69 | 95 | 1012.7 |
| 20260507020150 | 5 | 198 | 1.6 | 1.6 | 0.00 | 2.69 | 2.69 | 95 | 1012.6 |
| 20260507015649 | 6 | 224 | 1.6 | 3.2 | 0.00 | 2.69 | 2.69 | 95 | 1012.6 |
| 20260507015146 | 5 | 242 | 3.2 | 3.2 | 0.00 | 2.69 | 2.69 | 95 | 1012.5 |
| 20260507014642 | 5 | 202 | 1.6 | 1.6 | 0.00 | 2.69 | 2.69 | 95 | 1012.6 |
| 20260507014138 | 5 | 176 | 1.6 | 3.2 | 0.00 | 2.69 | 2.69 | 95 | 1012.8 |
| 20260507013636 | 5 | 294 | 1.6 | 3.2 | 0.00 | 2.69 | 2.69 | 95 | 1012.9 |
| 20260507013132 | 6 | 207 | 3.2 | 4.8 | 0.00 | 2.69 | 2.69 | 95 | 1012.3 |
| 20260507012630 | 6 | 200 | 0.0 | 1.6 | 0.00 | 2.69 | 2.69 | 95 | 1012.5 |
| 20260507012125 | 6 | 204 | 1.6 | 1.6 | 0.00 | 2.69 | 2.69 | 95 | 1012.5 |
| 20260507011624 | 6 | 199 | 0.0 | 0.0 | 0.00 | 2.69 | 2.69 | 95 | 1012.4 |
| 20260507011119 | 6 | 194 | 0.0 | 1.6 | 0.00 | 2.69 | 2.69 | 95 | 1012.5 |
| 20260507010614 | 6 | 204 | 1.6 | 1.6 | 0.00 | 2.69 | 2.69 | 95 | 1012.4 |
| 20260507010110 | 6 | 262 | 0.0 | 1.6 | 0.00 | 2.69 | 2.69 | 95 | 1012.4 |
| 20260507005608 | 6 | 242 | 1.6 | 1.6 | 0.00 | 2.69 | 2.69 | 95 | 1012.4 |
| 20260507005104 | 6 | 209 | 1.6 | 4.8 | 0.00 | 2.69 | 2.69 | 95 | 1012.3 |
| 20260507004601 | 6 | 273 | 1.6 | 4.8 | 0.00 | 2.69 | 2.69 | 95 | 1012.2 |
| 20260507004058 | 6 | 251 | 3.2 | 3.2 | 0.00 | 2.69 | 2.69 | 95 | 1012.0 |
| 20260507003554 | 6 | 287 | 3.2 | 3.2 | 0.00 | 2.69 | 2.69 | 95 | 1011.8 |
| 20260507003049 | 6 | 271 | 3.2 | 3.2 | 0.00 | 2.69 | 2.69 | 95 | 1012.0 |
| 20260507002546 | 6 | 256 | 4.8 | 6.4 | 0.00 | 2.69 | 2.69 | 95 | 1011.8 |
| 20260507002042 | 6 | 212 | 1.6 | 3.2 | 0.00 | 2.69 | 2.69 | 95 | 1011.7 |
| 20260507001539 | 6 | 224 | 1.6 | 3.2 | 0.00 | 2.69 | 2.69 | 95 | 1011.7 |
| 20260507001037 | 7 | 253 | 4.8 | 9.7 | 0.00 | 2.69 | 2.69 | 94 | 1011.6 |
| 20260507000532 | 7 | 125 | 3.2 | 4.8 | 0.00 | 2.69 | 2.69 | 94 | 1011.6 |
| 20260507000028 | 7 | 273 | 3.2 | 4.8 | 0.00 | 2.69 | 2.69 | 93 | 1011.4 |
| 20260506235526 | 7 | 269 | 6.4 | 11.3 | 0.00 | 2.69 | 2.69 | 91 | 1011.3 |
| 20260506235021 | 8 | 317 | 4.8 | 9.7 | 0.00 | 2.69 | 2.69 | 90 | 1011.2 |
| 20260506234519 | 8 | 238 | 9.7 | 12.9 | 0.00 | 2.69 | 2.69 | 89 | 1011.3 |
| 20260506234016 | 8 | 307 | 4.8 | 4.8 | 0.00 | 2.69 | 2.69 | 88 | 1011.4 |
| 20260506233512 | 8 | 211 | 1.6 | 1.6 | 0.00 | 2.69 | 2.69 | 89 | 1010.8 |
| 20260506233010 | 8 | 282 | 4.8 | 4.8 | 0.00 | 2.69 | 2.69 | 89 | 1010.8 |
| 20260506232506 | 8 | 289 | 6.4 | 6.4 | 0.00 | 2.69 | 2.69 | 88 | 1010.8 |
| 20260506232001 | 8 | 194 | 0.0 | 1.6 | 0.00 | 2.69 | 2.69 | 89 | 1010.8 |
| 20260506231459 | 8 | 195 | 0.0 | 0.0 | 0.00 | 2.69 | 2.69 | 89 | 1010.6 |
| 20260506230956 | 8 | 187 | 0.0 | 1.6 | 0.00 | 2.69 | 2.69 | 89 | 1010.6 |
| 20260506230452 | 8 | 223 | 1.6 | 1.6 | 0.00 | 2.69 | 2.69 | 89 | 1010.5 |
| 20260506225949 | 8 | 195 | 0.0 | 1.6 | 0.00 | 2.69 | 2.69 | 89 | 1010.5 |
| 20260506225447 | 8 | 187 | 0.0 | 0.0 | 0.00 | 2.69 | 2.69 | 89 | 1010.4 |
| 20260506224943 | 8 | 193 | 0.0 | 0.0 | 0.00 | 2.69 | 2.69 | 89 | 1010.4 |
| 20260506224440 | 9 | 187 | 0.0 | 0.0 | 0.00 | 2.69 | 2.69 | 88 | 1010.5 |
| 20260506223937 | 9 | 191 | 0.0 | 0.0 | 0.00 | 2.69 | 2.69 | 88 | 1010.2 |
| 20260506223432 | 9 | 178 | 0.0 | 0.0 | 0.00 | 2.69 | 2.69 | 87 | 1010.2 |
| 20260506222930 | 9 | 187 | 0.0 | 0.0 | 0.00 | 2.69 | 2.69 | 88 | 1009.9 |
| 20260506222426 | 8 | 191 | 0.0 | 0.0 | 0.00 | 2.69 | 2.69 | 87 | 1010.1 |
| 20260506221923 | 8 | 191 | 0.0 | 0.0 | 0.00 | 2.69 | 2.69 | 88 | 1010.0 |
| 20260506221420 | 8 | 195 | 0.0 | 0.0 | 0.00 | 2.69 | 2.69 | 89 | 1010.2 |
| 20260506220918 | 8 | 195 | 0.0 | 0.0 | 0.00 | 2.69 | 2.69 | 89 | 1010.0 |
| 20260506220413 | 9 | 188 | 0.0 | 0.0 | 0.00 | 2.69 | 2.69 | 88 | 1010.1 |
| 20260506215910 | 9 | 194 | 0.0 | 0.0 | 0.00 | 2.69 | 2.69 | 88 | 1010.0 |
| 20260506215407 | 9 | 199 | 0.0 | 0.0 | 0.00 | 2.69 | 2.69 | 88 | 1010.0 |
| 20260506214902 | 8 | 190 | 0.0 | 0.0 | 0.00 | 2.69 | 2.69 | 87 | 1009.7 |
| 20260506214359 | 8 | 190 | 0.0 | 0.0 | 0.00 | 2.69 | 2.69 | 88 | 1009.8 |
| 20260506213857 | 8 | 190 | 0.0 | 0.0 | 0.00 | 2.69 | 2.69 | 89 | 1009.9 |
| 20260506213354 | 8 | 203 | 0.0 | 0.0 | 0.00 | 2.69 | 2.69 | 88 | 1010.0 |
| 20260506212852 | 8 | 204 | 0.0 | 0.0 | 0.00 | 2.69 | 2.69 | 89 | 1010.1 |
| 20260506212347 | 8 | 206 | 1.6 | 1.6 | 0.00 | 2.69 | 2.69 | 89 | 1010.1 |
| 20260506211842 | 8 | 203 | 0.0 | 0.0 | 0.00 | 2.69 | 2.69 | 88 | 1009.9 |
| 20260506211339 | 8 | 202 | 0.0 | 0.0 | 0.00 | 2.69 | 2.69 | 88 | 1009.9 |
| 20260506210836 | 8 | 196 | 0.0 | 0.0 | 0.00 | 2.69 | 2.69 | 88 | 1010.0 |
| 20260506210333 | 8 | 191 | 1.6 | 1.6 | 0.00 | 2.69 | 2.69 | 87 | 1010.0 |
| 20260506205830 | 8 | 197 | 0.0 | 0.0 | 0.00 | 2.69 | 2.69 | 88 | 1010.1 |
| 20260506205326 | 8 | 200 | 0.0 | 0.0 | 0.00 | 2.69 | 2.69 | 89 | 1010.1 |
| 20260506204822 | 8 | 258 | 3.2 | 4.8 | 0.00 | 2.69 | 2.69 | 89 | 1010.0 |
| 20260506204320 | 8 | 213 | 1.6 | 1.6 | 0.00 | 2.69 | 2.69 | 88 | 1010.0 |
| 20260506203818 | 8 | 207 | 0.0 | 0.0 | 0.00 | 2.69 | 2.69 | 88 | 1009.8 |
| 20260506203315 | 8 | 228 | 1.6 | 1.6 | 0.00 | 2.69 | 2.69 | 88 | 1009.8 |
| 20260506202811 | 8 | 204 | 0.0 | 0.0 | 0.00 | 2.69 | 2.69 | 90 | 1010.0 |
| 20260506202309 | 8 | 200 | 0.0 | 1.6 | 0.00 | 2.69 | 2.69 | 91 | 1010.0 |
| 20260506201805 | 8 | 204 | 0.0 | 0.0 | 0.00 | 2.69 | 2.69 | 92 | 1010.2 |
| 20260506201302 | 7 | 196 | 0.0 | 0.0 | 0.00 | 2.69 | 2.69 | 93 | 1010.3 |
| 20260506200759 | 7 | 204 | 0.0 | 0.0 | 0.00 | 2.69 | 2.69 | 93 | 1009.9 |
| 20260506200255 | 7 | 200 | 0.0 | 0.0 | 0.00 | 2.69 | 2.69 | 94 | 1010.0 |
| 20260506195752 | 7 | 212 | 0.0 | 0.0 | 0.00 | 2.69 | 2.69 | 95 | 1010.1 |
| 20260506195248 | 7 | 231 | 1.6 | 3.2 | 0.00 | 2.69 | 2.69 | 95 | 1010.0 |
| 20260506194746 | 7 | 187 | 0.0 | 0.0 | 0.00 | 2.69 | 2.69 | 96 | 1010.0 |
| 20260506194242 | 7 | 206 | 0.0 | 0.0 | 0.00 | 2.69 | 2.69 | 97 | 1010.2 |
| 20260506193740 | 7 | 221 | 1.6 | 3.2 | 0.00 | 2.69 | 2.69 | 97 | 1009.9 |
| 20260506193236 | 7 | 198 | 0.0 | 1.6 | 0.00 | 2.69 | 2.69 | 98 | 1009.7 |
| 20260506192732 | 7 | 204 | 0.0 | 0.0 | 0.00 | 2.69 | 2.69 | 98 | 1009.8 |
| 20260506192229 | 6 | 196 | 0.0 | 0.0 | 0.00 | 2.69 | 2.69 | 98 | 1009.7 |
| 20260506191726 | 6 | 197 | 0.0 | 0.0 | 0.00 | 2.69 | 2.69 | 98 | 1009.8 |
| 20260506191222 | 6 | 210 | 1.6 | 1.6 | 0.00 | 2.69 | 2.69 | 98 | 1009.7 |
| 20260506190720 | 6 | 200 | 0.0 | 0.0 | 0.00 | 2.69 | 2.69 | 98 | 1010.0 |
| 20260506190216 | 6 | 195 | 0.0 | 1.6 | 0.00 | 2.69 | 2.69 | 98 | 1009.8 |
| 20260506185714 | 7 | 200 | 0.0 | 0.0 | 0.00 | 2.69 | 2.69 | 98 | 1010.0 |
| 20260506185210 | 6 | 206 | 0.0 | 0.0 | 0.00 | 2.69 | 2.69 | 98 | 1010.0 |
| 20260506184708 | 6 | 223 | 1.6 | 3.2 | 0.00 | 2.69 | 2.69 | 97 | 1010.1 |
| 20260506184205 | 6 | 202 | 1.6 | 1.6 | 0.00 | 2.69 | 2.69 | 97 | 1009.9 |
| 20260506183701 | 6 | 228 | 1.6 | 1.6 | 0.00 | 2.69 | 2.69 | 97 | 1009.9 |
| 20260506183157 | 6 | 198 | 1.6 | 3.2 | 0.00 | 2.69 | 2.69 | 96 | 1009.7 |
| 20260506182655 | 7 | 230 | 0.0 | 1.6 | 0.00 | 2.69 | 2.69 | 96 | 1009.7 |
| 20260506182151 | 7 | 200 | 1.6 | 3.2 | 0.00 | 2.69 | 2.69 | 96 | 1009.7 |
| 20260506181644 | 7 | 226 | 3.2 | 4.8 | 0.00 | 2.69 | 2.69 | 96 | 1009.7 |
| 20260506181141 | 7 | 217 | 3.2 | 4.8 | 0.00 | 2.69 | 2.69 | 96 | 1009.9 |
| 20260506180638 | 7 | 203 | 0.0 | 1.6 | 0.00 | 2.69 | 2.69 | 95 | 1009.9 |
| 20260506180134 | 7 | 193 | 3.2 | 3.2 | 0.00 | 2.69 | 2.69 | 96 | 1009.7 |
| 20260506175631 | 6 | 232 | 1.6 | 1.6 | 0.00 | 2.69 | 2.69 | 96 | 1009.7 |
| 20260506175126 | 7 | 181 | 0.0 | 0.0 | 0.00 | 2.69 | 2.69 | 96 | 1009.8 |
| 20260506174626 | 7 | 205 | 1.6 | 1.6 | 0.00 | 2.69 | 2.69 | 96 | 1010.0 |
| 20260506174122 | 7 | 237 | 4.8 | 4.8 | 0.00 | 2.69 | 2.69 | 96 | 1009.7 |
| 20260506173620 | 7 | 202 | 1.6 | 1.6 | 0.00 | 2.69 | 2.69 | 96 | 1009.6 |
| 20260506173116 | 7 | 234 | 3.2 | 4.8 | 0.00 | 2.69 | 2.69 | 97 | 1009.5 |
| 20260506172614 | 6 | 216 | 3.2 | 3.2 | 0.00 | 2.69 | 2.69 | 97 | 1009.5 |
| 20260506172109 | 7 | 213 | 0.0 | 1.6 | 0.00 | 2.69 | 2.69 | 98 | 1009.5 |
| 20260506171607 | 6 | 212 | 3.2 | 4.8 | 0.00 | 2.69 | 2.69 | 98 | 1009.4 |
| 20260506171104 | 6 | 211 | 1.6 | 1.6 | 0.00 | 2.69 | 2.69 | 98 | 1009.3 |
| 20260506170601 | 6 | 208 | 0.0 | 0.0 | 0.00 | 2.69 | 2.69 | 98 | 1009.2 |
| 20260506170053 | 6 | 210 | 0.0 | 1.6 | 0.00 | 2.69 | 2.69 | 98 | 1008.9 |
| 20260506165552 | 6 | 206 | 0.0 | 1.6 | 0.00 | 2.69 | 2.69 | 98 | 1009.0 |
| 20260506165048 | 6 | 206 | 0.0 | 0.0 | 0.00 | 2.69 | 2.69 | 98 | 1009.0 |
| 20260506164545 | 6 | 246 | 1.6 | 3.2 | 0.00 | 2.69 | 2.69 | 98 | 1009.0 |
| 20260506164042 | 6 | 204 | 1.6 | 1.6 | 0.00 | 2.69 | 2.69 | 99 | 1009.1 |
| 20260506163537 | 6 | 200 | 0.0 | 0.0 | 0.00 | 2.69 | 2.69 | 99 | 1009.1 |
| 20260506163033 | 6 | 201 | 0.0 | 0.0 | 0.00 | 2.69 | 2.69 | 99 | 1008.9 |
| 20260506162529 | 6 | 200 | 1.6 | 1.6 | 0.00 | 2.69 | 2.69 | 99 | 1009.0 |
| 20260506162021 | 6 | 209 | 0.0 | 0.0 | 0.00 | 2.69 | 2.69 | 99 | 1009.0 |
| 20260506161519 | 6 | 210 | 0.0 | 0.0 | 0.00 | 2.69 | 2.69 | 99 | 1009.3 |
| 20260506161016 | 7 | 211 | 0.0 | 0.0 | 0.00 | 2.69 | 2.69 | 99 | 1008.9 |
| 20260506160513 | 7 | 211 | 0.0 | 0.0 | 0.00 | 2.69 | 2.69 | 99 | 1009.0 |
| 20260506160010 | 6 | 211 | 0.0 | 0.0 | 0.00 | 2.69 | 2.69 | 99 | 1008.9 |
| 20260506155508 | 6 | 200 | 0.0 | 0.0 | 0.00 | 2.69 | 2.69 | 99 | 1009.2 |
| 20260506153640 | 7 | 187 | 0.0 | 0.0 | 0.00 | 2.69 | 2.69 | 99 | 1009.2 |
| 20260506153137 | 6 | 189 | 0.0 | 0.0 | 0.00 | 2.69 | 2.69 | 99 | 1009.1 |
| 20260506152634 | 6 | 189 | 0.0 | 0.0 | 0.00 | 2.69 | 2.69 | 99 | 1009.0 |
| 20260506152132 | 7 | 198 | 0.0 | 0.0 | 0.00 | 2.69 | 2.69 | 99 | 1009.0 |
| 20260506151630 | 6 | 197 | 0.0 | 0.0 | 0.00 | 2.69 | 2.69 | 99 | 1008.9 |
| 20260506151127 | 6 | 197 | 0.0 | 0.0 | 0.18 | 2.69 | 2.69 | 99 | 1009.1 |
| 20260506150624 | 6 | 198 | 0.0 | 0.0 | 0.18 | 2.69 | 2.69 | 99 | 1009.1 |
| 20260506150120 | 6 | 198 | 0.0 | 0.0 | 0.13 | 2.67 | 2.67 | 99 | 1008.8 |
| 20260506145617 | 6 | 198 | 0.0 | 0.0 | 0.13 | 2.67 | 2.67 | 99 | 1008.9 |
| 20260506145114 | 6 | 198 | 0.0 | 0.0 | 0.00 | 2.64 | 2.64 | 99 | 1009.0 |
| 20260506144611 | 6 | 188 | 0.0 | 0.0 | 0.18 | 2.64 | 2.64 | 99 | 1009.0 |
| 20260506144108 | 6 | 205 | 0.0 | 0.0 | 0.18 | 2.64 | 2.64 | 99 | 1008.8 |
| 20260506143606 | 6 | 181 | 0.0 | 0.0 | 0.18 | 2.64 | 2.64 | 99 | 1008.7 |
| 20260506143104 | 6 | 183 | 0.0 | 0.0 | 0.00 | 2.62 | 2.62 | 99 | 1008.6 |
| 20260506142602 | 6 | 207 | 0.0 | 0.0 | 0.00 | 2.62 | 2.62 | 99 | 1008.6 |
| 20260506142100 | 6 | 187 | 0.0 | 0.0 | 0.00 | 2.62 | 2.62 | 99 | 1008.4 |
| 20260506141557 | 6 | 198 | 0.0 | 0.0 | 0.13 | 2.62 | 2.62 | 99 | 1008.3 |
| 20260506141055 | 6 | 195 | 0.0 | 0.0 | 0.13 | 2.62 | 2.62 | 99 | 1008.5 |
| 20260506140552 | 6 | 199 | 0.0 | 1.6 | 0.00 | 2.59 | 2.59 | 99 | 1008.2 |
| 20260506140050 | 6 | 194 | 0.0 | 0.0 | 0.18 | 2.59 | 2.59 | 99 | 1008.2 |
| 20260506135546 | 6 | 194 | 0.0 | 0.0 | 0.18 | 2.59 | 2.59 | 99 | 1008.5 |
| 20260506135042 | 6 | 183 | 0.0 | 0.0 | 0.00 | 2.57 | 2.57 | 99 | 1008.3 |
| 20260506134539 | 6 | 190 | 0.0 | 0.0 | 0.00 | 2.57 | 2.57 | 99 | 1008.2 |
| 20260506134035 | 6 | 185 | 0.0 | 0.0 | 0.13 | 2.57 | 2.57 | 99 | 1008.3 |
| 20260506133532 | 6 | 182 | 0.0 | 0.0 | 0.13 | 2.57 | 2.57 | 99 | 1008.3 |
| 20260506133029 | 6 | 182 | 0.0 | 0.0 | 0.00 | 2.54 | 2.54 | 99 | 1008.5 |
| 20260506132527 | 6 | 182 | 0.0 | 0.0 | 0.00 | 2.54 | 2.54 | 99 | 1008.5 |
| 20260506132024 | 6 | 185 | 0.0 | 0.0 | 0.00 | 2.54 | 2.54 | 99 | 1008.3 |
| 20260506131521 | 5 | 182 | 0.0 | 0.0 | 0.00 | 2.54 | 2.54 | 99 | 1008.2 |
| 20260506131017 | 5 | 182 | 0.0 | 0.0 | 0.18 | 2.54 | 2.54 | 99 | 1008.0 |
| 20260506130514 | 5 | 182 | 0.0 | 0.0 | 0.18 | 2.54 | 2.54 | 99 | 1008.1 |
| 20260506130012 | 5 | 182 | 0.0 | 0.0 | 0.18 | 2.54 | 2.54 | 99 | 1008.1 |
| 20260506125510 | 5 | 182 | 0.0 | 0.0 | 0.00 | 2.51 | 2.51 | 99 | 1008.2 |
| 20260506125007 | 5 | 182 | 0.0 | 0.0 | 0.13 | 2.51 | 2.51 | 99 | 1008.3 |
| 20260506124505 | 5 | 187 | 0.0 | 0.0 | 0.13 | 2.51 | 2.51 | 99 | 1008.4 |
| 20260506124003 | 5 | 184 | 0.0 | 0.0 | 0.13 | 2.51 | 2.51 | 99 | 1008.5 |
| 20260506123501 | 5 | 184 | 0.0 | 0.0 | 0.00 | 2.49 | 2.49 | 99 | 1008.3 |
| 20260506122958 | 5 | 200 | 0.0 | 0.0 | 0.00 | 2.49 | 2.49 | 99 | 1008.5 |
| 20260506122454 | 5 | 192 | 0.0 | 0.0 | 0.18 | 2.49 | 2.49 | 99 | 1008.4 |
| 20260506121953 | 5 | 193 | 0.0 | 0.0 | 0.18 | 2.49 | 2.49 | 99 | 1008.6 |
| 20260506121450 | 5 | 193 | 0.0 | 0.0 | 0.13 | 2.46 | 2.46 | 99 | 1008.5 |
| 20260506120946 | 5 | 196 | 1.6 | 1.6 | 0.30 | 2.46 | 2.46 | 99 | 1008.7 |
| 20260506120444 | 5 | 214 | 0.0 | 1.6 | 0.18 | 2.44 | 2.44 | 99 | 1008.6 |
| 20260506115941 | 5 | 194 | 0.0 | 0.0 | 0.18 | 2.41 | 2.41 | 99 | 1008.7 |
| 20260506115439 | 5 | 150 | 1.6 | 1.6 | 0.18 | 2.41 | 2.41 | 99 | 1008.5 |
| 20260506114937 | 5 | 192 | 0.0 | 0.0 | 0.00 | 2.39 | 2.39 | 99 | 1008.6 |
| 20260506114434 | 5 | 124 | 0.0 | 1.6 | 0.13 | 2.39 | 2.39 | 99 | 1008.3 |
| 20260506113933 | 5 | 200 | 0.0 | 0.0 | 0.13 | 2.39 | 2.39 | 99 | 1008.2 |
| 20260506113430 | 5 | 205 | 0.0 | 0.0 | 0.00 | 2.36 | 2.36 | 99 | 1008.2 |
| 20260506112926 | 5 | 207 | 1.6 | 3.2 | 0.00 | 2.36 | 2.36 | 99 | 1008.2 |
| 20260506112424 | 5 | 203 | 0.0 | 1.6 | 0.00 | 2.36 | 2.36 | 99 | 1007.8 |
| 20260506111921 | 5 | 196 | 0.0 | 0.0 | 0.00 | 2.36 | 2.36 | 99 | 1008.0 |
| 20260506111419 | 5 | 188 | 0.0 | 0.0 | 0.18 | 2.36 | 2.36 | 99 | 1007.9 |
| 20260506110916 | 5 | 174 | 1.6 | 1.6 | 0.18 | 2.36 | 2.36 | 99 | 1007.9 |
| 20260506110414 | 5 | 197 | 0.0 | 0.0 | 0.00 | 2.34 | 2.34 | 99 | 1008.0 |
| 20260506105910 | 5 | 190 | 1.6 | 1.6 | 0.00 | 2.34 | 2.34 | 99 | 1008.1 |
| 20260506105407 | 5 | 188 | 1.6 | 1.6 | 0.13 | 2.34 | 2.34 | 99 | 1008.2 |
| 20260506104904 | 5 | 188 | 0.0 | 0.0 | 0.13 | 2.34 | 2.34 | 99 | 1007.7 |
| 20260506104402 | 5 | 261 | 3.2 | 3.2 | 0.18 | 2.31 | 2.31 | 99 | 1008.1 |
| 20260506103859 | 5 | 208 | 1.6 | 1.6 | 0.30 | 2.31 | 2.31 | 99 | 1008.1 |
| 20260506103357 | 5 | 111 | 1.6 | 3.2 | 0.30 | 2.29 | 2.29 | 99 | 1008.0 |
| 20260506102854 | 6 | 197 | 0.0 | 0.0 | 0.48 | 2.26 | 2.26 | 99 | 1008.2 |
| 20260506102352 | 6 | 157 | 0.0 | 1.6 | 0.43 | 2.24 | 2.24 | 99 | 1008.1 |
| 20260506101849 | 6 | 271 | 3.2 | 4.8 | 0.43 | 2.18 | 2.18 | 99 | 1008.2 |
| 20260506101345 | 6 | 199 | 0.0 | 1.6 | 0.48 | 2.16 | 2.16 | 99 | 1008.2 |
| 20260506100843 | 6 | 210 | 0.0 | 0.0 | 0.48 | 2.11 | 2.11 | 99 | 1008.4 |
| 20260506100341 | 6 | 218 | 3.2 | 3.2 | 0.61 | 2.08 | 2.08 | 99 | 1008.4 |
| 20260506095839 | 6 | 254 | 1.6 | 1.6 | 0.48 | 2.03 | 2.03 | 99 | 1008.3 |
| 20260506095336 | 6 | 355 | 1.6 | 3.2 | 0.30 | 1.98 | 1.98 | 99 | 1008.0 |
| 20260506094833 | 6 | 194 | 3.2 | 3.2 | 0.48 | 1.98 | 1.98 | 99 | 1007.8 |
| 20260506094332 | 6 | 202 | 0.0 | 0.0 | 0.30 | 1.93 | 1.93 | 99 | 1007.7 |
| 20260506093829 | 6 | 186 | 0.0 | 1.6 | 0.30 | 1.91 | 1.91 | 99 | 1007.4 |
| 20260506093326 | 6 | 185 | 0.0 | 0.0 | 0.30 | 1.88 | 1.88 | 99 | 1007.7 |
| 20260506092824 | 6 | 197 | 0.0 | 0.0 | 0.13 | 1.85 | 1.85 | 99 | 1007.9 |
| 20260506092321 | 6 | 205 | 0.0 | 1.6 | 0.18 | 1.83 | 1.83 | 99 | 1007.7 |